Jackson, MI

1:36 AM EST on February 08, 2016 (GMT -0500)
Jackson County-Reynolds

Weather History for KJXN - November, 2013

Change the Weather History Date:

Friday, November 8, 2013

  Actual Average Record
Temperature  
Mean Temperature 37 °F 43 °F  
Max Temperature 44 °F 52 °F 67 °F (1986)
Min Temperature 30 °F 34 °F 12 °F (1991)
Degree Days  
Heating Degree Days 28 22  
Month to date heating degree days 174 167  
Since 1 July heating degree days 796 815  
Cooling Degree Days 0 0  
Month to date cooling degree days 0 0  
Year to date cooling degree days 616 592  
Moisture  
Dew Point 28 °F    
Average Humidity 69    
Maximum Humidity 92    
Minimum Humidity 45    
Precipitation  
Precipitation 0.00 in 0.09 in 0.41 in (1957)
Month to date precipitation 0.45 0.70  
Year to date precipitation 29.96 27.73  
Sea Level Pressure  
Sea Level Pressure 30.24 in    
Wind  
Wind Speed 6 mph (SW)    
Max Wind Speed 13 mph    
Max Gust Speed 16 mph    
Visibility 10 miles    
Events      
T = Trace of Precipitation, MM = Missing Value Source: NWS Daily Summary

Daily Weather History Graph

Daily Weather History Graph

Search for Another Location

Airport or City:

Trip Planner

Search our weather history database for the weather conditions in past years. The results will help you decide how hot, cold, wet, or windy it might be!

Date:

Astronomy

Nov. 08, 2013 Rise Set
Actual Time 7:19 AM EST 5:22 PM EST
Civil Twilight 6:50 AM EST 5:52 PM EST
Nautical Twilight 6:16 AM EST 6:25 PM EST
Astronomical Twilight 5:43 AM EST 6:58 PM EST
Moon 12:15 PM EST 10:43 PM EST
Length of Visible Light 11h 02m
Length of Day
10h 02m
Waxing Crescent, 33% of the Moon is Illuminated
Nov 8
Waxing Crescent
Nov 10
First Quarter
Nov 17
Full
Nov 25
Last Quarter
Dec 2
New

Hourly Weather History & Observations

Time (EST) Temp. Windchill Dew Point Humidity Pressure Visibility Wind Dir Wind Speed Gust Speed Precip Events Conditions
12:56 AM 34.0 °F 29.8 °F 30.0 °F 85% 30.16 in 10.0 mi West 4.6 mph - N/A   Overcast
1:56 AM 33.1 °F 27.7 °F 28.9 °F 85% 30.17 in 10.0 mi WSW 5.8 mph - N/A   Mostly Cloudy
2:56 AM 33.1 °F 26.9 °F 30.0 °F 89% 30.18 in 10.0 mi West 6.9 mph - N/A   Overcast
3:56 AM 30.9 °F 27.5 °F 28.9 °F 92% 30.19 in 10.0 mi West 3.5 mph - N/A   Clear
4:56 AM 30.0 °F 24.1 °F 28.0 °F 92% 30.21 in 10.0 mi WSW 5.8 mph - N/A   Partly Cloudy
5:56 AM 32.0 °F 26.4 °F 30.0 °F 92% 30.23 in 10.0 mi West 5.8 mph - N/A   Overcast
6:56 AM 32.0 °F 25.6 °F 30.0 °F 92% 30.25 in 10.0 mi WSW 6.9 mph - N/A   Overcast
7:56 AM 30.9 °F 23.5 °F 28.9 °F 92% 30.28 in 6.0 mi SW 8.1 mph - N/A   Clear
8:04 AM 30.2 °F 23.4 °F 28.4 °F 93% 30.25 in 6.0 mi WSW 6.9 mph - N/A   Partly Cloudy
8:56 AM 33.1 °F 26.1 °F 30.9 °F 92% 30.30 in 9.0 mi WSW 8.1 mph - N/A   Scattered Clouds
9:56 AM 37.0 °F 31.6 °F 30.0 °F 76% 30.30 in 10.0 mi WSW 6.9 mph - N/A   Scattered Clouds
10:56 AM 39.0 °F 34.8 °F 27.0 °F 62% 30.31 in 10.0 mi West 5.8 mph - N/A   Partly Cloudy
11:56 AM 39.9 °F 33.9 °F 25.0 °F 55% 30.31 in 10.0 mi WNW 9.2 mph - N/A   Mostly Cloudy
12:56 PM 41.0 °F 38.0 °F 25.0 °F 53% 30.28 in 10.0 mi Variable 4.6 mph - N/A   Mostly Cloudy
1:56 PM 42.1 °F 38.4 °F 26.1 °F 53% 30.26 in 10.0 mi WSW 5.8 mph - N/A   Clear
2:56 PM 44.1 °F 39.5 °F 24.1 °F 45% 30.25 in 10.0 mi SW 8.1 mph - N/A   Clear
3:56 PM 43.0 °F 38.8 °F 25.0 °F 49% 30.24 in 10.0 mi WSW 6.9 mph - N/A   Clear
4:56 PM 41.0 °F 37.1 °F 25.0 °F 53% 30.25 in 10.0 mi SW 5.8 mph - N/A   Clear
5:56 PM 37.9 °F 34.4 °F 25.0 °F 60% 30.24 in 10.0 mi SSW 4.6 mph - N/A   Clear
6:56 PM 36.0 °F 32.1 °F 26.1 °F 67% 30.24 in 10.0 mi South 4.6 mph - N/A   Clear
7:56 PM 37.0 °F 32.4 °F 27.0 °F 67% 30.23 in 10.0 mi South 5.8 mph - N/A   Clear
8:56 PM 37.0 °F 31.6 °F 27.0 °F 67% 30.21 in 10.0 mi South 6.9 mph - N/A   Scattered Clouds
9:56 PM 37.9 °F 32.1 °F 28.0 °F 68% 30.20 in 10.0 mi South 8.1 mph - N/A   Overcast
10:56 PM 37.9 °F 32.7 °F 28.0 °F 68% 30.18 in 10.0 mi SSE 6.9 mph - N/A   Clear
11:56 PM 37.9 °F 32.7 °F 28.9 °F 70% 30.16 in 10.0 mi SSE 6.9 mph - N/A   Clear